Flag for Germany Weather past 2 weeks in Greifswald, Mecklenburg-Western Pomerania, Germany

Now
72 °F

Partly sunny.


Feels Like: 77 °F
Forecast: 60 / 77 °F
Wind: 2 mph from West

Location: Greifswald

Current Time: Aug 29, 2015 at 5:38:00 PM

Latest Report: Aug 29, 2015 at 5:00 PM


Visibility: 19 mi

Pressure: 30.24 "Hg

Humidity: 43%

Dew point: 48 °F

Location of GreifswaldLocation

Historic Weather in Greifswald — Graph

°F

Greifswald temperature yesterday

Maximum temperature yesterday: 68 °F (at 4:00 PM)
Minimum temperature yesterday: 57 °F (at 7:00 AM)
Average temperature yesterday: 62 °F

Past Weeks' High & Low Weather Summary

 TemperatureHumidityPressure
High81 °F (Aug 15, 3:00 PM)99% (Aug 15, 10:00 PM)30.35 "Hg (Aug 15, 10:00 PM)
Low51 °F (Aug 22, 6:00 AM)29% (Aug 21, 2:00 PM)29.71 "Hg (Aug 25, 1:00 AM)
Average66 °F73%30.01 "Hg
* Reported Aug 14 4:00 PM — Aug 29 4:00 PM, Greifswald, Weather by CustomWeather, © 2015

Note: Actual official high and low records may vary slightly from our data, if they occured in-between our weather recording intervals... More about our weather records

Advertising

Greifswald weather history for previous 24 hours

 ConditionsComfort  
Time TempWeatherWind HumidityBarometerVisibility
4:00 PM
Sat, Aug 29
71 °FPartly sunny.3 mph45%30.25 "Hg19 mi
3:00 PM70 °FPartly sunny.3 mph42%30.26 "Hg22 mi
2:00 PM70 °FPartly sunny.3 mph46%30.26 "Hg28 mi
1:00 PM69 °FPartly sunny.3 mph46%30.28 "Hg22 mi
12:00 PM67 °FScattered clouds.3 mph54%30.28 "Hg16 mi
10:00 AM64 °FPartly sunny.2 mph68%30.26 "Hg18 mi
9:00 AM61 °FPassing clouds.2 mph78%30.26 "Hg11 mi
8:00 AM57 °FPassing clouds.2 mph85%30.24 "Hg8 mi
7:00 AM54 °FPassing clouds.2 mph92%30.22 "Hg6 mi
6:00 AM55 °FPassing clouds.2 mph91%30.20 "Hg6 mi
5:00 AM56 °FPassing clouds.2 mph89%30.19 "Hg7 mi
4:00 AM57 °FPassing clouds.2 mph90%30.18 "Hg7 mi
3:00 AM58 °FPassing clouds.2 mph87%30.17 "Hg9 mi
2:00 AM58 °FPassing clouds.2 mph86%30.15 "Hg10 mi
1:00 AM58 °FPassing clouds.3 mph85%30.15 "Hg10 mi
10:00 PM
Fri, Aug 28
61 °FPassing clouds.2 mph77%30.11 "Hg14 mi
9:00 PM62 °FPassing clouds.2 mph77%30.09 "Hg14 mi
8:00 PM65 °FPartly sunny.2 mph71%30.07 "Hg17 mi
7:00 PM66 °FPartly sunny.3 mph63%30.06 "Hg19 mi
6:00 PM67 °FScattered clouds.3 mph58%30.06 "Hg22 mi
Weather by CustomWeather, © 2015

See weather overviewHow to use our weather pages